Location: Aytr�
(46.1357°N, 1.1145°W)
Time: 14:29:36
(UTC+00:00)

USA 306 - Pass Details

Date: 03 March 2021
Orbit: 564 x 577 km, 54.0° (Epoch: 17 April)

Event Time Altitude Azimuth Distance (km) Brightness Sun altitude
Rises 18:18:12 0° 270° (W) 2,773 9.2 -5.0°
Reaches altitude 10° 18:20:37 10° 280° (W) 1,874 7.2 -5.4°
Maximum altitude 18:24:30 33° 346° (NNW) 962 4.2 -6.1°
Drops below altitude 10° 18:28:23 10° 52° (NE) 1,870 5.0 -6.8°
Enters shadow 18:29:30 - 57° (ENE) 2,273 5.4 -7.0°
